Location: Ahstedt
(52.2048°N, 10.1060°E)
Time: 22:35:46
(UTC+00:00)

Cosmos 540 Rocket - Pass Details

Date: 20 April 2026
Orbit: 734 x 748 km, 74.1° (Epoch: 15 May)

Event Time Altitude Azimuth Distance (km) Brightness Sun altitude
Exits shadow 02:30:05 17° 198° (SSW) 1,827 5.0 -14.2°
Maximum altitude 02:34:05 80° 113° (ESE) 764 3.5 -13.7°
Drops below altitude 10° 02:39:15 10° 27° (NNE) 2,277 7.1 -13.1°
Sets 02:41:37 0° 26° (NNE) 3,206 8.0 -12.9°
